Showing default

LUOJIA-1 01, 43485

Orbit data source: Space-Track

LUOJIA-1 01, 43485 is a payload satellite owned by Wuhan daxue (CN) in SSO that was launched on Sat, 02 Jun 2018 UTC via a CHANG ZHENG 2D launch vehicle from the Jiuquan Satellite Launch Center, China (JSC). Payload-class satellites include a variety of spacecraft equipped with specific instruments for various scientific and technological missions. These include communications satellites like Starlink; space stations such as the ISS; scientific satellites like the Hubble; Earth observation satellites from companies like Planet Labs, Umbra, and HawkEye 360; GPS; miniature CubeSats for education and research; and military/defense satellites.

Loading next visibility...
Identifier
43485, 2018-048B
Orbit
SSO
Country
Flag of CNCN / PRC
Related business
Manufacturer
Wuhan daxue
Mission
Operational Amateur Imaging
Bus & Motor
CUBESAT 6U, Unknown motor
Mass
10 kg wet, 10 kg dry
Launch date (UTC)
2018-06-02 (7 years ago)
Launch vehicle
CHANG ZHENG 2D
Launch site
Jiuquan Satellite Launch Center, China (JSC)
Object type
Payload
Rocket body
Debris
Shape & HBR
Box + 1 Pan, 0.3 m
Radar Cross Section
0.092 m², Medium (>0.1 m² and < 1m²)

Expand to show TLE details & history
Last TLE update: 9 hours ago

TLE from 9 hours ago
0 LUOJIA-1 01
1 43485U 18048B   25258.55102787  .00002343  00000-0  27667-3 0  9995
2 43485  97.8367 336.0643 0008065 308.4361  51.6129 14.85629700393411
Epoch: 2025-09-15T13:13Z
TLE epoch observation values (Epoch: 2025-09-15T13:13:28.807Z)
Latitude
-0.00012°
Longitude
142.94023°
Altitude
611.143 km
Speed
7.556 km/s
True Right ascension
22h 24m 15s
True Declination
0° 00' 00"
Sunlit
Object was in full shadow at epoch
Visualization orbit readout
Latitude
Unknown
Longitude
Unknown
Altitude
Unknown
Speed
Unknown
Apparent Right ascension
Unknown
Apparent Declination
Unknown
Sunlit
N/A
Visualization observer readout
Local Sidereal Time
15:10:50
Azimuth
Unknown
Elevation
Unknown
Doppler factor
Unknown
Orbital elements
Apogee altitude
614.275 km
Perigee altitude
603.006 km
Semi-major axis
6,986.778 km
Eccentricity
0.00081
Inclination
97.8367°
RAAN
336.0643°
Arg. of periapsis
308.4361°
True anomaly
51.68539°
Mean anomaly
51.6129°
Eccentric anomaly
51.64914°
Mean motion
3.71645 °/min
Orbital period
96.87 mins
BSTAR
0.00027667
Loading maneuver chart data...
Computing Atmospheric mass density...
Loading historical data...
Loading historical data...
Loading historical data...
Loading historical data...
Loading historical data...
Loading historical data...
Loading historical data...
Other satellites on launch #48 in the year 2018 (2018-06-02 UTC)

Documentation

Showing up to 5 results
|